CW2978 Weather Reports


time (UTC)temp
F
wind
direction
speed
knots
gust
knots
rain 1hr
in
rain 24hr
in
rain mn
in
humidity
%
barometer
mb
20210920042438 64 214 0.0 0.0 0.00 0.00 0.00 87 1012.1
20210920041922 64 214 0.0 0.0 0.00 0.00 0.00 87 1012.1
20210920041405 64 214 0.0 0.0 0.00 0.00 0.00 87 1012.1
20210920040848 64 214 0.0 0.0 0.00 0.00 0.00 87 1012.1
20210920040331 64 214 0.0 0.0 0.00 0.00 0.00 86 1012.1
20210920035813 64 214 0.0 0.0 0.00 0.00 0.00 86 1012.0
20210920035256 64 214 0.0 0.0 0.00 0.00 0.00 86 1012.1
20210920034739 64 214 0.0 0.0 0.00 0.00 0.00 86 1012.1
20210920034221 64 214 0.0 0.0 0.00 0.00 0.00 86 1012.1
20210920033705 64 214 0.0 0.0 0.00 0.00 0.00 86 1012.0
20210920033147 64 214 0.0 0.0 0.00 0.00 0.00 86 1012.0
20210920032631 64 214 0.0 0.0 0.00 0.00 0.00 86 1012.0
20210920032114 64 214 0.0 0.0 0.00 0.00 0.00 86 1011.9
20210920031555 64 214 0.0 0.0 0.00 0.00 0.00 85 1011.9
20210920031038 64 214 0.0 0.9 0.00 0.00 0.00 85 1011.9
20210920030521 65 214 0.0 0.9 0.00 0.00 0.00 85 1011.9
20210920030003 65 214 0.0 0.9 0.00 0.00 0.00 85 1011.8
20210920025447 65 214 0.0 1.7 0.00 0.00 0.00 85 1011.9
20210920024928 65 214 0.0 1.7 0.00 0.00 0.00 85 1011.9
20210920024413 65 214 0.0 0.9 0.00 0.00 0.00 85 1012.0
20210920023855 65 214 0.0 0.9 0.00 0.00 0.00 84 1011.9
20210920023337 65 214 0.0 0.9 0.00 0.00 0.00 84 1011.9
20210920022819 65 214 0.0 0.9 0.00 0.00 0.00 84 1011.7
20210920022305 65 213 0.0 0.9 0.00 0.00 0.00 84 1011.6
20210920021746 65 213 0.0 0.9 0.00 0.00 0.00 84 1011.5
20210920021235 65 213 0.0 0.9 0.00 0.00 0.00 84 1011.5
20210920020712 65 213 0.9 3.5 0.00 0.00 0.00 83 1011.5
20210920020156 66 213 0.9 3.5 0.00 0.00 0.00 83 1011.5
20210920015638 66 236 0.0 4.3 0.00 0.00 0.00 83 1011.5
20210920015122 66 217 0.0 4.3 0.00 0.00 0.00 83 1011.5
20210920014602 66 271 0.0 3.5 0.00 0.00 0.00 82 1011.6
20210920014045 66 214 0.9 3.5 0.00 0.00 0.00 82 1011.6
20210920013526 66 213 0.9 3.5 0.00 0.00 0.00 81 1011.6
20210920013010 66 215 0.9 3.5 0.00 0.00 0.00 82 1011.6
20210920012453 67 208 0.9 3.5 0.00 0.00 0.00 81 1011.7
20210920011934 67 205 0.9 3.5 0.00 0.00 0.00 80 1011.7
20210920011416 67 262 0.9 4.3 0.00 0.00 0.00 80 1011.6
20210920010856 67 209 0.9 4.3 0.00 0.00 0.00 79 1011.7
20210920010341 67 251 0.9 4.3 0.00 0.00 0.00 79 1011.8
20210920005823 67 257 0.9 4.3 0.00 0.00 0.00 79 1011.8
20210920005306 67 244 1.7 4.3 0.00 0.00 0.00 78 1011.8
20210920004748 68 211 0.9 4.3 0.00 0.00 0.00 78 1011.8
20210920004231 68 213 1.7 5.2 0.00 0.00 0.00 78 1011.8
20210920003715 68 214 1.7 5.2 0.00 0.00 0.00 78 1011.7
20210920003155 68 237 0.9 4.3 0.00 0.00 0.00 77 1011.7
20210920002637 68 273 0.9 4.3 0.00 0.00 0.00 77 1011.9
20210920002119 68 273 0.9 5.2 0.00 0.00 0.00 76 1011.8
20210920001602 69 218 1.7 5.2 0.00 0.00 0.00 76 1011.9
20210920001045 69 200 1.7 5.2 0.00 0.00 0.00 76 1011.9
20210920000529 69 272 1.7 5.2 0.00 0.00 0.00 75 1011.9
20210920000011 69 205 0.9 5.2 0.00 0.00 0.00 75 1011.9
20210919235454 69 166 1.7 6.1 0.00 0.00 0.00 76 1012.0
20210919234939 69 261 1.7 6.1 0.00 0.00 0.00 76 1012.0
20210919234419 69 195 1.7 6.1 0.00 0.00 0.00 75 1012.0
20210919233902 70 196 1.7 6.1 0.00 0.00 0.00 74 1012.0
20210919233343 70 266 1.7 5.2 0.00 0.00 0.00 75 1012.1
20210919232827 70 242 1.7 5.2 0.00 0.00 0.00 75 1012.1
20210919232308 70 275 2.6 7.0 0.00 0.00 0.00 74 1012.2
20210919231748 70 201 2.6 7.0 0.00 0.00 0.00 75 1012.2
20210919231228 71 232 2.6 6.1 0.00 0.00 0.00 74 1012.2
20210919230712 71 236 2.6 6.1 0.00 0.00 0.00 73 1012.2
20210919230153 70 249 2.6 6.1 0.00 0.00 0.00 72 1012.2
20210919225636 72 197 2.6 3.5 0.00 0.00 0.00 69 1012.2
20210919225115 71 262 2.6 6.1 0.00 0.00 0.00 72 1012.2
20210919224557 71 227 2.6 5.2 0.00 0.00 0.00 72 1012.3
20210919224036 72 227 1.7 6.1 0.00 0.00 0.00 70 1012.4
20210919223518 72 205 2.6 6.1 0.00 0.00 0.00 72 1012.4
20210919223000 71 251 2.6 6.1 0.00 0.00 0.00 72 1012.6
20210919222439 72 182 1.7 6.1 0.00 0.00 0.00 70 1012.6
20210919221923 72 198 1.7 5.2 0.00 0.00 0.00 73 1012.7
20210919221404 71 155 2.6 6.1 0.00 0.00 0.00 72 1012.7
20210919220847 71 217 1.7 6.1 0.00 0.00 0.00 71 1012.6
20210919220329 72 222 1.7 3.5 0.00 0.00 0.00 72 1012.7
20210919215806 73 231 1.7 5.2 0.00 0.00 0.00 73 1012.8
20210919215253 71 255 1.7 6.1 0.00 0.00 0.00 71 1012.8
20210919214730 72 286 2.6 6.1 0.00 0.00 0.00 73 1013.0
20210919214212 72 235 2.6 6.1 0.00 0.00 0.00 71 1013.0
20210919213653 72 261 2.6 6.1 0.00 0.00 0.00 71 1013.0
20210919213137 71 178 3.5 7.0 0.00 0.00 0.00 73 1013.1
20210919212617 71 196 2.6 7.0 0.00 0.00 0.00 70 1013.1
20210919212100 72 182 2.6 6.1 0.00 0.00 0.00 72 1013.2
20210919211541 71 225 2.6 6.1 0.00 0.00 0.00 74 1013.2
20210919211023 71 213 2.6 5.2 0.00 0.00 0.00 73 1013.3
20210919210502 71 214 2.6 5.2 0.00 0.00 0.00 72 1013.4
20210919205942 71 213 2.6 7.0 0.00 0.00 0.00 72 1013.5
20210919205422 72 194 2.6 7.0 0.00 0.00 0.00 74 1013.6
20210919204903 71 188 3.5 7.0 0.00 0.00 0.00 74 1013.7
20210919204344 71 207 2.6 7.0 0.00 0.00 0.00 74 1013.7
20210919203826 71 211 3.5 5.2 0.00 0.00 0.00 73 1013.8
20210919203306 71 217 2.6 7.0 0.00 0.00 0.00 71 1014.0
20210919202747 72 215 1.7 6.1 0.00 0.00 0.00 70 1014.1
20210919202229 72 171 1.7 6.1 0.00 0.00 0.00 70 1014.2
20210919201710 72 245 1.7 7.0 0.00 0.00 0.00 71 1014.3
20210919201152 71 284 2.6 7.0 0.00 0.00 0.00 72 1014.3
20210919200636 71 204 2.6 7.8 0.00 0.00 0.00 71 1014.3
20210919200117 71 194 2.6 7.8 0.00 0.00 0.00 72 1014.4
20210919195603 71 217 2.6 7.0 0.00 0.00 0.00 72 1014.5
20210919195042 70 203 3.5 7.0 0.00 0.00 0.00 74 1014.5
20210919194525 70 211 3.5 7.0 0.00 0.00 0.00 73 1014.6
20210919194009 70 240 3.5 7.0 0.00 0.00 0.00 73 1014.6
20210919193451 70 300 3.5 7.0 0.00 0.00 0.00 73 1014.6
20210919192934 71 215 2.6 7.0 0.00 0.00 0.00 71 1014.6
20210919192418 71 188 1.7 7.0 0.00 0.00 0.00 70 1014.6
20210919191858 71 207 2.6 6.1 0.00 0.00 0.00 72 1014.7
20210919191339 70 190 2.6 6.1 0.00 0.00 0.00 72 1014.7
20210919190819 71 176 2.6 6.1 0.00 0.00 0.00 73 1014.6
20210919190300 70 180 1.7 6.1 0.00 0.00 0.00 72 1014.6
20210919185740 70 187 1.7 6.1 0.00 0.00 0.00 73 1014.7
20210919185222 70 163 2.6 7.0 0.00 0.00 0.00 73 1014.8
20210919184704 70 206 3.5 7.0 0.00 0.00 0.00 74 1014.9
20210919184149 69 167 2.6 6.1 0.00 0.00 0.00 73 1014.9
20210919183631 70 173 1.7 6.1 0.00 0.00 0.00 73 1015.0
20210919183112 69 205 0.0 4.3 0.00 0.00 0.00 72 1015.0
20210919182552 70 228 0.0 0.9 0.00 0.00 0.00 73 1015.1
20210919182038 70 234 0.0 0.9 0.00 0.00 0.00 75 1015.1
20210919181510 69 203 0.0 0.0 0.00 0.00 0.00 76 1015.1
20210919180952 68 202 0.0 0.0 0.00 0.00 0.00 77 1015.2
20210919180436 69 178 0.0 0.0 0.00 0.00 0.00 76 1015.3
20210919175915 68 225 0.0 0.0 0.00 0.00 0.00 76 1015.4
20210919175357 68 211 0.0 0.0 0.00 0.00 0.00 77 1015.4
20210919174835 67 217 0.0 0.0 0.00 0.00 0.00 80 1015.4
20210919174316 67 209 0.0 0.0 0.00 0.00 0.00 80 1015.5
20210919173756 67 199 0.0 0.0 0.00 0.00 0.00 80 1015.4
20210919173236 67 198 0.0 0.0 0.00 0.00 0.00 79 1015.4
20210919172715 67 196 0.0 0.0 0.00 0.00 0.00 81 1015.5
20210919172157 66 196 0.0 0.0 0.00 0.00 0.00 80 1015.5
20210919171638 66 123 0.0 0.0 0.00 0.00 0.00 81 1015.6
20210919171121 65 106 0.0 0.0 0.00 0.00 0.00 82 1015.7
20210919170557 65 106 0.0 0.0 0.00 0.00 0.00 82 1015.8
20210919170038 65 106 0.0 0.0 0.00 0.00 0.00 83 1015.8
20210919165518 65 355 0.0 0.0 0.00 0.00 0.00 83 1015.8
20210919165001 65 355 0.0 0.0 0.00 0.00 0.00 83 1015.8
20210919164440 64 355 0.0 0.0 0.00 0.00 0.00 83 1015.8
20210919163919 64 355 0.0 0.0 0.00 0.00 0.00 84 1015.8
20210919163359 64 355 0.0 0.0 0.00 0.00 0.00 83 1015.8
20210919162841 64 0 0.0 0.0 0.00 0.00 0.00 83 1015.7
20210919162321 64 0 0.0 0.0 0.00 0.00 0.00 83 1015.7
20210919161806 64 341 0.0 0.0 0.00 0.00 0.00 83 1015.8
20210919161245 64 342 0.0 0.0 0.00 0.00 0.00 83 1015.7
20210919160727 63 355 0.0 0.0 0.00 0.00 0.00 83 1015.6
20210919160206 63 355 0.0 0.0 0.00 0.00 0.00 83 1015.5
20210919155645 62 355 0.0 0.0 0.00 0.00 0.00 83 1015.5
20210919155125 62 355 0.0 0.0 0.00 0.00 0.00 83 1015.5
20210919154607 62 355 0.0 0.0 0.00 0.00 0.00 84 1015.4
20210919154051 62 355 0.0 0.0 0.00 0.00 0.00 85 1015.3
20210919153532 62 355 0.0 0.0 0.00 0.00 0.00 86 1015.2
20210919153007 61 355 0.0 0.0 0.00 0.00 0.00 87 1015.3
20210919152447 60 355 0.0 0.0 0.00 0.00 0.00 86 1015.2
20210919151926 60 355 0.0 0.0 0.00 0.00 0.00 87 1015.2
20210919151406 60 355 0.0 0.0 0.00 0.00 0.00 88 1015.2
20210919150850 59 355 0.0 0.0 0.00 0.00 0.00 89 1015.1
20210919150330 59 355 0.0 0.0 0.00 0.00 0.00 89 1015.0
20210919145814 59 355 0.0 0.0 0.00 0.00 0.00 88 1015.0
20210919145251 61 355 0.0 0.0 0.00 0.00 0.00 89 1015.0
20210919144731 61 355 0.0 0.0 0.00 0.00 0.00 91 1015.0
20210919144210 61 355 0.0 0.0 0.00 0.00 0.00 91 1015.0
20210919143655 60 355 0.0 0.0 0.00 0.00 0.00 91 1015.0
20210919143128 60 355 0.0 2.6 0.00 0.00 0.00 92 1015.1
20210919142610 60 355 0.9 2.6 0.00 0.00 0.00 92 1015.1
20210919142049 59 355 0.9 3.5 0.00 0.00 0.00 92 1015.0
20210919141530 58 0 0.0 3.5 0.00 0.00 0.00 92 1015.0
20210919141010 56 355 0.0 1.7 0.00 0.00 0.00 92 1015.0
20210919140449 56 355 0.0 1.7 0.00 0.00 0.00 91 1015.0
20210919135931 57 355 0.0 2.6 0.00 0.00 0.00 91 1015.0
20210919135409 58 355 0.0 2.6 0.00 0.00 0.00 91 1014.9
20210919134850 59 355 0.9 2.6 0.00 0.00 0.00 92 1014.8
20210919134330 58 355 0.9 2.6 0.00 0.00 0.00 92 1014.8
20210919133811 58 355 1.7 2.6 0.00 0.00 0.00 92 1014.8
20210919133252 58 355 1.7 2.6 0.00 0.00 0.00 92 1014.8
20210919132735 58 0 1.7 2.6 0.00 0.00 0.00 92 1014.8
20210919132216 57 0 1.7 3.5 0.00 0.00 0.00 92 1014.8
20210919131658 56 355 0.9 3.5 0.00 0.00 0.00 92 1014.7
20210919131142 56 334 0.0 0.0 0.00 0.00 0.00 92 1014.7
20210919130624 55 334 0.0 0.0 0.00 0.00 0.00 91 1014.8
20210919130104 56 334 0.0 0.0 0.00 0.00 0.00 91 1014.7
20210919125551 56 334 0.0 0.9 0.00 0.00 0.00 91 1014.6
20210919125029 57 334 0.9 3.5 0.00 0.00 0.00 91 1014.6
20210919124512 57 334 0.0 3.5 0.00 0.00 0.00 92 1014.6
20210919123953 57 326 0.0 0.0 0.00 0.00 0.00 92 1014.5
20210919123435 56 324 0.0 0.0 0.00 0.00 0.00 92 1014.5
20210919122917 55 324 0.0 0.0 0.00 0.00 0.00 91 1014.4
20210919122358 55 324 0.0 0.0 0.00 0.00 0.00 91 1014.4
20210919121837 55 324 0.0 0.0 0.00 0.00 0.00 91 1014.4
20210919121318 55 325 0.0 0.0 0.00 0.00 0.00 91 1014.3
20210919120801 56 325 0.0 0.0 0.00 0.00 0.00 91 1014.2
20210919120243 56 325 0.0 0.0 0.00 0.00 0.00 91 1014.1
20210919115730 56 325 0.0 0.0 0.00 0.00 0.00 91 1014.1
20210919115210 56 325 0.0 0.0 0.00 0.00 0.00 91 1014.1
20210919114655 55 325 0.0 0.0 0.00 0.00 0.00 91 1014.1
20210919114131 55 325 0.0 0.0 0.00 0.00 0.00 90 1014.0
20210919113614 56 325 0.0 0.0 0.00 0.00 0.00 91 1014.1
20210919113057 56 325 0.0 0.0 0.00 0.00 0.00 91 1014.0
20210919112536 56 325 0.0 0.0 0.00 0.00 0.00 91 1014.1
20210919112018 55 325 0.0 0.0 0.00 0.00 0.00 90 1014.1
20210919111501 56 325 0.0 0.0 0.00 0.00 0.00 90 1014.2
20210919110943 56 325 0.0 0.0 0.00 0.00 0.00 91 1014.2
20210919110427 56 325 0.0 0.0 0.00 0.00 0.00 91 1014.1
20210919105907 56 325 0.0 0.0 0.00 0.00 0.00 90 1014.2
20210919105348 56 325 0.0 0.0 0.00 0.00 0.00 90 1014.2
20210919104828 57 325 0.0 0.0 0.00 0.00 0.00 90 1014.2
20210919104310 57 325 0.0 0.0 0.00 0.00 0.00 90 1014.2
20210919103753 57 325 0.0 0.0 0.00 0.00 0.00 90 1014.3
20210919103232 57 325 0.0 0.0 0.00 0.00 0.00 90 1014.4
20210919102716 57 325 0.0 0.0 0.00 0.00 0.00 90 1014.4
20210919102157 57 325 0.0 0.0 0.00 0.00 0.00 90 1014.4
20210919101640 57 325 0.0 0.0 0.00 0.00 0.00 90 1014.5
20210919101121 57 325 0.0 0.0 0.00 0.00 0.00 91 1014.5
20210919100601 57 325 0.0 0.0 0.00 0.00 0.00 90 1014.5
20210919100046 57 325 0.0 0.0 0.00 0.00 0.00 90 1014.5
20210919095525 56 325 0.0 0.0 0.00 0.00 0.00 90 1014.6
20210919095006 56 325 0.0 0.0 0.00 0.00 0.00 90 1014.7
20210919094445 57 325 0.0 0.0 0.00 0.00 0.00 90 1014.7
20210919093926 57 329 0.0 0.0 0.00 0.00 0.00 90 1014.7
20210919093407 57 329 0.0 0.0 0.00 0.00 0.00 90 1014.7
20210919092849 57 329 0.0 0.0 0.00 0.00 0.00 89 1014.7
20210919092330 58 323 0.0 0.0 0.00 0.00 0.00 90 1014.8
20210919091810 58 323 0.0 0.0 0.00 0.00 0.00 89 1014.7
20210919091249 58 323 0.0 0.0 0.00 0.00 0.00 89 1014.9
20210919090730 58 323 0.0 0.0 0.00 0.00 0.00 90 1014.9
20210919090213 58 323 0.0 0.0 0.00 0.00 0.00 90 1014.9
20210919085655 58 323 0.0 0.0 0.00 0.00 0.00 89 1015.0
20210919085138 59 323 0.0 0.0 0.00 0.00 0.00 89 1015.1
20210919084620 59 323 0.0 0.0 0.00 0.00 0.00 89 1015.0
20210919084101 59 323 0.0 0.0 0.00 0.00 0.00 89 1015.0
20210919083542 59 323 0.0 0.0 0.00 0.00 0.00 89 1015.0
20210919083024 59 323 0.0 0.0 0.00 0.00 0.00 89 1015.1
20210919082507 58 323 0.0 0.0 0.00 0.00 0.00 89 1015.0
20210919081951 59 323 0.0 0.0 0.00 0.00 0.00 89 1015.0
20210919081433 59 323 0.0 0.0 0.00 0.00 0.00 89 1015.1
20210919080915 59 323 0.0 0.0 0.00 0.00 0.00 89 1015.2
20210919080355 59 323 0.0 0.0 0.00 0.00 0.00 89 1015.2
20210919075838 59 323 0.0 0.0 0.00 0.00 0.00 89 1015.2
20210919075320 59 323 0.0 0.0 0.00 0.00 0.00 88 1015.3
20210919074803 59 323 0.0 0.0 0.00 0.00 0.00 88 1015.2
20210919074243 59 323 0.0 0.0 0.00 0.00 0.00 88 1015.4
20210919073723 59 323 0.0 0.0 0.00 0.00 0.00 88 1015.4
20210919073204 59 323 0.0 0.0 0.00 0.00 0.00 88 1015.4
20210919072648 60 323 0.0 0.0 0.00 0.00 0.00 88 1015.4
20210919072128 60 323 0.0 0.0 0.00 0.00 0.00 88 1015.4
20210919071611 60 323 0.0 0.0 0.00 0.00 0.00 88 1015.4
20210919071053 60 323 0.0 0.0 0.00 0.00 0.00 88 1015.4
20210919070535 60 323 0.0 0.0 0.00 0.00 0.00 88 1015.4
20210919070016 60 323 0.0 0.0 0.00 0.00 0.00 88 1015.4
20210919065459 60 323 0.0 0.0 0.00 0.00 0.00 88 1015.3
20210919064942 60 323 0.0 0.0 0.00 0.00 0.00 88 1015.3
20210919064427 60 323 0.0 0.0 0.00 0.00 0.00 88 1015.3
20210919063910 60 323 0.0 0.0 0.00 0.00 0.00 88 1015.3
20210919063349 60 323 0.0 0.0 0.00 0.00 0.00 87 1015.3
20210919062831 60 323 0.0 0.0 0.00 0.00 0.00 87 1015.3
20210919062314 60 323 0.0 0.0 0.00 0.00 0.00 87 1015.3
20210919061754 60 323 0.0 0.0 0.00 0.00 0.00 87 1015.4
20210919061234 61 323 0.0 0.0 0.00 0.00 0.00 87 1015.4
20210919060717 61 323 0.0 0.0 0.00 0.00 0.00 87 1015.5
20210919060200 61 323 0.0 0.0 0.00 0.00 0.00 87 1015.4
20210919055641 61 323 0.0 0.0 0.00 0.00 0.00 87 1015.4
20210919055122 61 323 0.0 0.0 0.00 0.00 0.00 87 1015.5
20210919054609 61 323 0.0 0.0 0.00 0.00 0.00 87 1015.5
20210919054049 61 323 0.0 0.0 0.00 0.00 0.00 87 1015.5
20210919053532 61 323 0.0 0.0 0.00 0.00 0.00 87 1015.5
20210919053014 61 323 0.0 0.0 0.00 0.00 0.00 87 1015.6
20210919052456 62 323 0.0 0.0 0.00 0.00 0.00 86 1015.6
20210919051940 62 323 0.0 0.0 0.00 0.00 0.00 86 1015.6
20210919051422 62 323 0.0 0.0 0.00 0.00 0.00 86 1015.5
20210919050905 62 323 0.0 0.0 0.00 0.00 0.00 86 1015.5
20210919050348 62 323 0.0 0.0 0.00 0.00 0.00 86 1015.4
20210919045830 62 323 0.0 0.0 0.00 0.00 0.00 86 1015.4
20210919045314 62 323 0.0 0.0 0.00 0.00 0.00 86 1015.4
20210919044754 62 323 0.0 0.0 0.00 0.00 0.00 85 1015.4
20210919044237 62 323 0.0 1.7 0.00 0.00 0.00 85 1015.4
20210919043719 62 323 0.0 1.7 0.00 0.00 0.00 85 1015.4
20210919043201 62 323 0.0 1.7 0.00 0.00 0.00 85 1015.3
20210919042645 62 323 0.0 1.7 0.00 0.00 0.00 85 1015.4